Tracking 19625 objects as of 26-May-2019
HD Live streaming from Space Station
objects crossing your sky now
Watch Starlink satellites crossing your sky!

ANIK F1

Track ANIK F1 now!
ANIK F1 is classified as:


NORAD ID: 26624
Int'l Code: 2000-076A
Perigee: 35,783.5 km
Apogee: 35,805.7 km
Inclination: 0.0 °
Period: 1,436.1 minutes
Semi major axis: 42165 km
RCS: 21.0657 m2 (large)
Launch date: November 21, 2000
Source: Canada (CA)
Launch site: FRENCH GUIANA (FRGUI)

36 C-band and 48 Ku-band transponders; broadcasting, business; North and South America; faulty solar panels may affect operations by 2005.
aabbcc
Your satellite tracking list
Your tracking list is empty




NASA's NSSDC Master Catalog

Two Line Element Set (TLE):
1 26624U 00076A   19145.71785387 -.00000077  00000-0  00000+0 0  9993
2 26624   0.0382 125.6176 0002640 349.4821 279.0201  1.00268798 67865
Source of the keplerian elements: AFSPC